EFVA

Vaasa

Airport
ICAO code
EFVA
Summary
ICAO Region
EUR
ICAO Territory
Location

Vaasa,

Coordinates
63° 2' 45" N , 21° 45' 41" E
KCC
Airport CFIT
Altimeter Temperature Error Correction
Airport GND
Aircraft Ground De/Anti Icing
Airport WX
Freezing Rain
Metar
EFVA 152250Z AUTO 15002KT 0700 R16/P2000D FG VV001 12/12 Q1015

Description

Vaasa Airport (Vaasan lentoasema/Vasa flygplats) serves the Finnish city of Vaasa and is located 5.6 nm southeast of the city.

Climatology

Subarctic climate (Köppen climate classification Dfc) - long, usually very cold winters, and short, cool to mild summers.

Runways

Designator Length Width Surface Rops
16/34 2660 48 ASP Yes/Yes

Airport map

Aerial View

SKYbrary Partners:

Safety knowledge contributed by: